Waarnemingen

Advertentie
Mijn weer
Vlieland, Nederland (6242): temperatuur & dauwpunt: 16.08.2018 01:00:00 - 22.08.2018 01:00:00 (CEST)Vlieland, Nederland (6242): temperatuur 5cm: 16.08.2018 01:00:00 - 22.08.2018 01:00:00 (CEST)Vlieland, Nederland (6242): windsnelheid & windstoten: 16.08.2018 01:00:00 - 22.08.2018 01:00:00 (CEST)Vlieland, Nederland (6242): windrichting: 16.08.2018 01:00:00 - 22.08.2018 01:00:00 (CEST)Vlieland, Nederland (6242): luchtdruk: 16.08.2018 01:00:00 - 22.08.2018 01:00:00 (CEST)Vlieland, Nederland (6242): zicht: 16.08.2018 01:00:00 - 22.08.2018 01:00:00 (CEST)
Datum & Tijd tt [°C] td [°C] tt 5cm [°C] ff [km/u] ff [kn] fx [km/u] fx [kn] dd ppp [hPa] vv [km]
22.08.2018 01:00:00 16,5 16,0 14,2 9 5 11 6 Z 1018,6 6
22.08.2018 00:00:00 17,4 16,6 15,5 9 5 11 6 Z 1018,5 4,6
21.08.2018 23:00:00 18,0 17,2 17,0 9 5 14 8 Z 1018,6 6
21.08.2018 22:00:00 18,6 17,5 17,3 8 4 11 6 ZZW 1018,8 9
21.08.2018 21:00:00 19,4 17,7 18,7 9 5 14 8 ZW 1018,5 10
21.08.2018 20:00:00 20,3 18,0 20,6 11 6 18 10 ZW 1018,7 10
21.08.2018 19:00:00 20,8 18,0 21,6 11 6 18 10 ZW 1019,0 10
21.08.2018 18:00:00 22,4 18,7 24,4 15 8 25 14 WZW 1019,3 8
21.08.2018 17:00:00 23,2 17,6 26,1 22 12 29 16 WZW 1019,6 10
21.08.2018 16:00:00 22,0 17,2 23,9 15 8 25 14 ZW 1020,0 10
21.08.2018 15:00:00 22,7 17,8 24,3 21 11 36 19 Z 1020,2 10
21.08.2018 14:00:00 22,8 18,0 25,7 22 12 29 16 ZZO 1020,4 10
21.08.2018 13:00:00 21,9 17,4 25,0 21 11 29 16 ZZO 1020,4 10
21.08.2018 12:00:00 21,5 17,0 23,9 22 12 32 18 Z 1020,7 10
21.08.2018 11:00:00 20,8 17,1 23,0 22 12 32 18 ZZO 1020,7 10
21.08.2018 10:00:00 20,3 16,5 21,8 16 9 22 12 Z 1020,9 10
21.08.2018 09:00:00 19,2 16,4 19,8 16 9 22 12 Z 1020,9 10
21.08.2018 08:00:00 18,1 16,4 17,8 11 6 14 8 Z 1020,6 10
21.08.2018 07:00:00 16,0 14,7 14,9 9 5 11 6 Z 1020,5 10
21.08.2018 06:00:00 17,3 15,8 16,7 5 3 14 8 Z 1020,3 10
21.08.2018 05:00:00 17,5 16,0 17,1 9 5 11 6 Z 1020,3 10
21.08.2018 04:00:00 17,7 16,3 17,0 8 4 7 4 ZW 1020,8 10
21.08.2018 03:00:00 17,7 16,2 17,3 8 4 11 6 ZW 1020,7 10
21.08.2018 02:00:00 17,8 16,0 17,4 5 3 11 6 Z 1020,4 10
21.08.2018 01:00:00 17,8 16,2 17,7 5 3 7 4 ZZW 1020,5 10
21.08.2018 00:00:00 17,7 16,7 17,5 5 3 11 6 WZW 1020,6 10
20.08.2018 23:00:00 17,9 16,6 17,2 9 5 11 6 W 1020,6 10
20.08.2018 22:00:00 17,4 15,9 16,4 8 4 14 8 W 1020,5 10
20.08.2018 21:00:00 18,3 16,2 18,4 9 5 14 8 WNW 1020,3 10
20.08.2018 20:00:00 18,5 16,0 18,9 13 7 25 14 WNW 1020,2 10
20.08.2018 19:00:00 19,0 15,5 20,0 16 9 22 12 WNW 1020,2 10
20.08.2018 18:00:00 19,7 15,8 21,3 13 7 18 10 WNW 1020,1 10
20.08.2018 17:00:00 20,2 16,0 22,1 15 8 18 10 WNW 1020,2 10
20.08.2018 16:00:00 20,4 15,2 22,8 11 6 18 10 W 1020,2 10
20.08.2018 15:00:00 20,9 15,4 23,9 11 6 22 12 WNW 1020,2 10
20.08.2018 14:00:00 19,7 15,2 21,7 18 10 25 14 WNW 1020,0 10
20.08.2018 13:00:00 19,8 15,9 23,6 13 7 22 12 NNW 1019,7 10
20.08.2018 12:00:00 20,0 16,3 22,7 15 8 22 12 NNW 1019,6 10
20.08.2018 11:00:00 18,7 16,8 19,1 18 10 32 18 NNW 1019,2 10
20.08.2018 10:00:00 17,7 16,9 18,1 24 13 32 18 NNW 1018,7 10
20.08.2018 09:00:00 17,7 17,0 17,7 18 10 32 18 NW 1018,1 10
20.08.2018 08:00:00 18,3 16,0 18,0 13 7 32 18 NW 1017,5 10
20.08.2018 07:00:00 17,6 16,7 17,4 18 10 25 14 NW 1016,9 9
20.08.2018 06:00:00 17,3 16,2 17,2 26 14 36 19 WNW 1016,7 10
20.08.2018 05:00:00 17,2 15,8 17,3 28 15 40 21 WNW 1016,4 10
20.08.2018 04:00:00 18,2 16,7 18,1 29 16 40 21 WNW 1016,5 10
20.08.2018 03:00:00 19,1 16,9 19,0 29 16 36 19 W 1016,3 10
20.08.2018 02:00:00 19,4 17,2 19,1 29 16 36 19 W 1016,0 10
20.08.2018 01:00:00 19,3 17,5 19,1 31 17 43 23 W 1016,1 10
20.08.2018 00:00:00 19,4 18,0 19,1 37 20 43 23 WZW 1016,3 10
19.08.2018 23:00:00 19,1 17,9 18,8 37 20 47 25 WZW 1016,0 9
19.08.2018 22:00:00 18,9 17,9 18,6 37 20 47 25 WZW 1016,0 10
19.08.2018 21:00:00 18,4 17,7 18,2 41 22 50 27 WZW 1015,9 8
19.08.2018 20:00:00 18,9 17,8 18,6 39 21 50 27 WZW 1015,9 2,7
19.08.2018 19:00:00 19,3 17,3 19,4 42 23 54 29 ZW 1016,0 10
19.08.2018 18:00:00 19,2 16,9 19,5 46 25 54 29 ZW 1016,0 10
19.08.2018 17:00:00 19,0 16,7 19,3 46 25 61 33 ZW 1016,3 7
19.08.2018 16:00:00 18,9 16,6 18,8 48 26 61 33 ZW 1016,3 10
19.08.2018 15:00:00 18,7 16,5 18,6 52 28 65 35 ZW 1016,6 4,9
19.08.2018 14:00:00 20,8 16,4 22,3 48 26 58 31 ZW 1016,8 10
19.08.2018 13:00:00 20,2 16,9 20,5 42 23 50 27 ZW 1017,1 10
19.08.2018 12:00:00 20,3 16,9 21,0 35 19 47 25 ZW 1017,4 10
19.08.2018 11:00:00 20,2 17,3 20,6 37 20 43 23 ZW 1017,8 10
19.08.2018 10:00:00 19,6 17,4 20,0 31 17 36 19 ZW 1017,9 10
19.08.2018 09:00:00 19,5 17,3 19,7 29 16 36 19 ZZW 1018,1 10
19.08.2018 08:00:00 19,4 17,0 19,3 29 16 36 19 ZW 1018,5 10
19.08.2018 07:00:00 18,9 16,2 18,7 24 13 32 18 ZZW 1018,4 10
19.08.2018 06:00:00 19,0 16,2 18,8 29 16 36 19 ZW 1018,5 10
19.08.2018 05:00:00 18,8 16,2 18,6 28 15 36 19 ZW 1018,9 10
19.08.2018 04:00:00 18,7 16,7 18,5 28 15 32 18 ZW 1019,1 10
19.08.2018 03:00:00 18,4 16,8 17,8 22 12 32 18 ZZW 1019,7 10
19.08.2018 02:00:00 18,4 16,5 17,8 28 15 32 18 ZW 1019,7 10
19.08.2018 01:00:00 18,9 16,3 18,7 28 15 36 19 WZW 1020,1 10
19.08.2018 00:00:00 18,8 16,0 18,6 29 16 36 19 WZW 1020,2 10
18.08.2018 23:00:00 18,5 15,6 18,0 28 15 36 19 ZW 1020,2 10
18.08.2018 22:00:00 18,7 14,8 18,4 31 17 36 19 WZW 1020,2 10
18.08.2018 21:00:00 19,0 15,5 18,8 34 18 40 21 WZW 1020,0 10
18.08.2018 20:00:00 19,2 15,4 19,3 31 17 40 21 ZW 1019,8 10
18.08.2018 19:00:00 19,5 15,2 19,8 34 18 43 23 WZW 1019,8 10
18.08.2018 18:00:00 19,8 15,0 20,4 35 19 47 25 WZW 1020,0 10
18.08.2018 17:00:00 19,9 13,7 20,9 39 21 47 25 WZW 1019,7 10
18.08.2018 16:00:00 20,2 13,8 21,2 39 21 47 25 WZW 1019,7 10
18.08.2018 15:00:00 20,9 13,8 22,8 41 22 50 27 WZW 1019,8 10
18.08.2018 14:00:00 19,7 14,6 20,6 41 22 50 27 WZW 1019,8 10
18.08.2018 13:00:00 19,2 14,1 20,1 39 21 50 27 ZW 1019,6 10
18.08.2018 12:00:00 19,9 14,6 21,3 37 20 47 25 WZW 1019,6 10
18.08.2018 11:00:00 18,8 14,8 19,5 35 19 47 25 WZW 1019,4 10
18.08.2018 10:00:00 19,2 14,1 19,9 39 21 47 25 ZW 1019,1 10
18.08.2018 09:00:00 18,9 14,6 19,5 34 18 43 23 WZW 1019,0 10
18.08.2018 08:00:00 18,4 14,0 17,9 34 18 40 21 WZW 1018,9 10
18.08.2018 07:00:00 16,7 15,1 16,1 16 9 29 16 ZZW 1018,8 10
18.08.2018 06:00:00 16,4 14,7 15,6 15 8 29 16 ZZW 1018,5 10
18.08.2018 05:00:00 16,3 14,0 15,6 21 11 32 18 ZW 1018,6 10
18.08.2018 04:00:00 16,6 13,7 15,7 28 15 36 19 ZW 1018,9 10
18.08.2018 03:00:00 16,4 14,3 15,7 18 10 29 16 ZZW 1019,0 10
18.08.2018 02:00:00 16,2 14,0 15,4 18 10 25 14 ZZW 1019,3 10
18.08.2018 01:00:00 16,5 14,0 15,8 21 11 25 14 ZZW 1019,4 10
18.08.2018 00:00:00 16,4 13,3 15,7 18 10 25 14 ZZW 1019,4 10
17.08.2018 23:00:00 16,4 13,0 15,6 18 10 25 14 ZZW 1019,5 10
17.08.2018 22:00:00 15,9 12,5 14,9 16 9 22 12 ZZW 1019,7 10
17.08.2018 21:00:00 16,8 12,1 15,9 15 8 22 12 ZW 1019,4 10
17.08.2018 20:00:00 17,9 12,1 18,1 15 8 22 12 WZW 1019,1 10
17.08.2018 19:00:00 19,0 11,9 20,6 15 8 25 14 WZW 1019,0 10
17.08.2018 18:00:00 19,5 12,2 21,1 21 11 29 16 W 1019,1 10
17.08.2018 17:00:00 20,6 12,3 22,4 21 11 29 16 W 1019,1 10
17.08.2018 16:00:00 19,2 12,6 20,8 21 11 25 14 WZW 1019,2 10
17.08.2018 15:00:00 20,4 12,7 22,1 21 11 29 16 W 1019,1 10
17.08.2018 14:00:00 20,7 12,4 23,9 18 10 25 14 W 1018,8 10
17.08.2018 13:00:00 20,7 12,1 23,7 18 10 25 14 W 1018,5 10
17.08.2018 12:00:00 20,0 12,1 22,8 18 10 25 14 W 1018,3 10
17.08.2018 11:00:00 19,4 12,1 21,5 18 10 25 14 W 1018,0 10
17.08.2018 10:00:00 19,0 12,5 20,3 21 11 29 16 WNW 1017,4 10
17.08.2018 09:00:00 17,7 12,3 18,0 24 13 29 16 WNW 1016,8 10
17.08.2018 08:00:00 17,2 11,3 16,8 22 12 29 16 WNW 1016,4 10
17.08.2018 07:00:00 17,2 12,8 16,5 18 10 25 14 WNW 1015,9 10
17.08.2018 06:00:00 17,1 13,1 16,4 21 11 25 14 WNW 1015,3 10
17.08.2018 05:00:00 17,0 13,6 16,4 21 11 29 16 W 1015,4 10
17.08.2018 04:00:00 17,0 12,9 16,2 21 11 25 14 WNW 1015,2 10
17.08.2018 03:00:00 16,6 13,3 15,9 21 11 25 14 WNW 1014,8 10
17.08.2018 02:00:00 16,6 13,3 15,7 21 11 29 16 WNW 1014,8 10
17.08.2018 01:00:00 15,9 14,2 15,2 15 8 36 19 WZW 1014,7 10
17.08.2018 00:00:00 15,7 14,2 15,5 34 18 47 25 WZW 1014,7 5
16.08.2018 23:00:00 17,6 15,3 16,9 31 17 36 19 ZW 1014,0 10
16.08.2018 22:00:00 17,0 15,5 16,5 22 12 29 16 ZZW 1014,1 10
16.08.2018 21:00:00 17,3 14,6 17,0 28 15 36 19 ZW 1013,8 10
16.08.2018 20:00:00 17,1 13,6 17,0 26 14 36 19 ZZW 1013,6 10
16.08.2018 19:00:00 17,6 13,2 17,3 29 16 36 19 ZZW 1013,3 10
16.08.2018 18:00:00 17,1 15,0 17,2 18 10 25 14 ZW 1014,0 10
16.08.2018 17:00:00 16,1 14,8 15,9 26 14 47 25 W 1014,3 9
16.08.2018 16:00:00 16,1 15,0 16,3 31 17 50 27 WNW 1013,8 2,9
16.08.2018 15:00:00 20,2 16,5 21,3 42 23 54 29 ZW 1013,0 10
16.08.2018 14:00:00 20,4 16,0 21,6 41 22 50 27 ZW 1012,9 10
16.08.2018 13:00:00 19,0 16,3 19,5 44 24 58 31 ZW 1012,9 10
16.08.2018 12:00:00 19,7 16,0 20,8 42 23 61 33 ZW 1012,9 10
16.08.2018 11:00:00 19,9 15,6 19,9 39 21 50 27 ZW 1013,0 10
16.08.2018 10:00:00 19,3 15,5 19,6 37 20 47 25 ZW 1012,8 10
16.08.2018 09:00:00 18,8 16,1 18,8 35 19 47 25 ZW 1013,0 10
16.08.2018 08:00:00 18,9 16,3 19,0 31 17 43 23 ZZW 1013,1 10
16.08.2018 07:00:00 18,5 16,6 18,1 29 16 36 19 ZZW 1013,4 10
16.08.2018 06:00:00 18,5 16,5 18,2 26 14 36 19 ZZW 1013,6 10
16.08.2018 05:00:00 18,6 16,4 18,3 24 13 36 19 ZZW 1013,8 10
16.08.2018 04:00:00 17,8 15,9 17,2 24 13 32 18 ZZW 1014,2 10
16.08.2018 03:00:00 18,1 15,4 17,7 26 14 36 19 ZZW 1014,4 10
16.08.2018 02:00:00 18,2 15,6 17,6 28 15 40 21 ZZW 1015,0 10
16.08.2018 01:00:00 18,5 16,1 18,0 29 16 36 19 ZZW 1015,5 10

tt = temperatuur
td = dauwpunt
tt 5cm = temperatuur 5cm
ff = windsnelheid
fx = windstoten
dd = windrichting
ppp = luchtdruk
vv = zicht

Weerstations in de omgeving